Weather History for Leadville, CO

Change the Weather History Date:

Tuesday, October 26, 2010

  Actual Average Record
Temperature  
Mean Temperature 19 °F -  
Max Temperature 22 °F 45 °F 66 °F (1977)
Min Temperature 15 °F 20 °F 1 °F (2012)
Degree Days  
Heating Degree Days 46 32  
Month to date heating degree days 641 724  
Since 1 July heating degree days 1696 2022  
Cooling Degree Days 0 0  
Month to date cooling degree days 0 0  
Year to date cooling degree days 0 0  
Moisture  
Dew Point 11 °F    
Average Humidity 75    
Maximum Humidity 88    
Minimum Humidity 62    
Precipitation  
Precipitation 0.19 in 0.03 in 0.60 in (2011)
Month to date precipitation 1.20 0.76  
Year to date precipitation 11.98 10.79  
Sea Level Pressure  
Sea Level Pressure 29.76 in    
Wind  
Wind Speed 14 mph (NNW)    
Max Wind Speed 30 mph    
Max Gust Speed 41 mph    
Visibility 3 miles    
Events Fog , Snow    
T = Trace of Precipitation, MM = Missing Value Source: NWS Daily Summary

Daily Weather History Graph

Daily Weather History Graph

Search for Another Location

Airport:

Trip Planner

Search our weather history database for the weather conditions in past years. The results will help you decide how hot, cold, wet, or windy it might be!

Date:

Astronomy

Oct. 26, 2010 Rise Set
Actual Time 7:26 AM MDT 6:11 PM MDT
Civil Twilight 6:59 AM MDT 6:38 PM MDT
Nautical Twilight 6:27 AM MDT 7:10 PM MDT
Astronomical Twilight 5:56 AM MDT 7:41 PM MDT
Moon 8:37 PM MDT (10/26) 11:08 AM MDT (10/26)
Length of Visible Light 11h 39m
Length of Day
10h 44m
Waning Gibbous, 87% of the Moon is Illuminated
Oct 26
Waning Gibbous
Oct 30
Last Quarter
Nov 5
New
Nov 13
First Quarter
Nov 21
Full

Hourly Weather History & Observations

Time (MDT) Temp. Windchill Dew Point Humidity Pressure Visibility Wind Dir Wind Speed Gust Speed Precip Events Conditions
12:37 AM 15.8 °F 0.9 °F 10.4 °F 79% 29.75 in 2.5 mi NNW 15.0 mph 24.2 mph 0.00 in Snow Light Snow
12:42 AM 15.8 °F 2.1 °F 12.2 °F 86% 29.75 in 1.2 mi NW 12.7 mph 24.2 mph 0.00 in Snow Light Snow
12:53 AM 15.1 °F 3.3 °F 12.9 °F 91% 29.72 in 1.5 mi NW 9.2 mph 18.4 mph 0.00 in Snow Light Snow
1:03 AM 15.8 °F 0.9 °F 12.2 °F 86% 29.75 in 0.8 mi NNW 15.0 mph 19.6 mph 0.00 in Snow Light Snow
1:19 AM 15.8 °F 0.9 °F 12.2 °F 86% 29.76 in 0.2 mi NNW 15.0 mph 25.3 mph 0.02 in Fog , Snow Heavy Snow
1:32 AM 15.8 °F 2.7 °F 12.2 °F 86% 29.75 in 0.5 mi North 11.5 mph 20.7 mph 0.03 in Fog , Snow Snow
1:43 AM 15.8 °F 3.4 °F 12.2 °F 86% 29.75 in 2.0 mi NNW 10.4 mph 21.9 mph 0.04 in Snow Light Snow
1:46 AM 15.8 °F 2.1 °F 12.2 °F 86% 29.75 in 3.0 mi NNW 12.7 mph 18.4 mph 0.04 in Snow Light Snow
1:53 AM 16.0 °F 0.1 °F 10.9 °F 81% 29.71 in 3.0 mi NNW 17.3 mph 28.8 mph 0.04 in Snow Light Snow
1:55 AM 15.8 °F -0.2 °F 10.4 °F 79% 29.75 in 1.5 mi NW 17.3 mph 28.8 mph 0.00 in Snow Light Snow
2:01 AM 15.8 °F 2.7 °F 12.2 °F 86% 29.75 in 0.8 mi NNW 11.5 mph 28.8 mph 0.00 in Snow Light Snow
2:16 AM 15.8 °F 1.4 °F 12.2 °F 86% 29.75 in 0.5 mi North 13.8 mph - 0.01 in Fog , Snow Snow
2:53 AM 15.1 °F 2.5 °F 12.9 °F 91% 29.71 in 0.8 mi NNE 10.4 mph - 0.04 in Snow Light Snow
3:13 AM 15.8 °F 8.6 °F 12.2 °F 86% 29.75 in 1.5 mi North 4.6 mph - 0.01 in Snow Light Snow
3:16 AM 15.8 °F 8.6 °F 12.2 °F 86% 29.75 in 2.0 mi NNW 4.6 mph - 0.01 in Snow Light Snow
3:22 AM 15.8 °F 5.1 °F 12.2 °F 86% 29.75 in 3.0 mi NNW 8.1 mph - 0.01 in Snow Light Snow
3:31 AM 15.8 °F 2.7 °F 10.4 °F 79% 29.74 in 5.0 mi NNW 11.5 mph 17.3 mph 0.01 in Snow Light Snow
3:38 AM 15.8 °F 0.9 °F 10.4 °F 79% 29.74 in 9.0 mi NNW 15.0 mph 19.6 mph 0.01 in Snow Light Snow
3:51 AM 15.8 °F 2.1 °F 10.4 °F 79% 29.75 in 2.0 mi North 12.7 mph 21.9 mph 0.01 in Snow Light Snow
3:53 AM 16.0 °F 3.6 °F 12.0 °F 84% 29.73 in 2.5 mi NNW 10.4 mph 21.9 mph 0.01 in Snow Light Snow
4:02 AM 15.8 °F 3.4 °F 12.2 °F 86% 29.75 in 1.2 mi NNW 10.4 mph 18.4 mph 0.00 in Snow Light Snow
4:05 AM 15.8 °F 4.2 °F 12.2 °F 86% 29.74 in 0.8 mi NW 9.2 mph - 0.00 in Snow Light Snow
4:14 AM 15.8 °F 5.1 °F 12.2 °F 86% 29.74 in 1.0 mi NW 8.1 mph - 0.00 in Snow Light Snow
4:25 AM 15.8 °F 8.6 °F 12.2 °F 86% 29.74 in 2.0 mi NNW 4.6 mph - 0.00 in Snow Light Snow
4:28 AM 15.8 °F 3.4 °F 12.2 °F 86% 29.74 in 1.8 mi NNW 10.4 mph - 0.00 in Snow Light Snow
4:37 AM 15.8 °F 3.4 °F 12.2 °F 86% 29.74 in 1.8 mi NNW 10.4 mph - 0.00 in Snow Light Snow
4:43 AM 15.8 °F 1.4 °F 10.4 °F 79% 29.74 in 3.0 mi NNW 13.8 mph 20.7 mph 0.00 in Snow Light Snow
4:53 AM 16.0 °F 4.4 °F 10.9 °F 81% 29.71 in 2.0 mi NNW 9.2 mph - 0.00 in Snow Light Snow
5:04 AM 15.8 °F 4.2 °F 10.4 °F 79% 29.73 in 6.0 mi NNW 9.2 mph - 0.00 in Snow Light Snow
5:31 AM 15.8 °F 5.1 °F 10.4 °F 79% 29.73 in 3.0 mi North 8.1 mph 16.1 mph 0.00 in Snow Light Snow
5:53 AM 15.1 °F 4.2 °F 10.9 °F 84% 29.71 in 8.0 mi NNW 8.1 mph - 0.00 in   Overcast
6:20 AM 15.8 °F 5.1 °F 10.4 °F 79% 29.73 in 2.0 mi NNW 8.1 mph - 0.00 in Snow Light Snow
6:28 AM 15.8 °F 6.1 °F 12.2 °F 86% 29.72 in 1.5 mi North 6.9 mph - 0.00 in Snow Light Snow
6:37 AM 15.8 °F 5.1 °F 10.4 °F 79% 29.72 in 3.0 mi NNW 8.1 mph - 0.01 in Snow Light Snow
6:53 AM 16.0 °F 3.6 °F 10.9 °F 81% 29.70 in 2.5 mi NNW 10.4 mph 17.3 mph 0.01 in Snow Light Snow
7:05 AM 15.8 °F 1.4 °F 10.4 °F 79% 29.72 in 1.8 mi NNW 13.8 mph 21.9 mph 0.00 in Snow Light Snow
7:20 AM 15.8 °F 0.3 °F 10.4 °F 79% 29.71 in 2.0 mi NNW 16.1 mph 27.6 mph 0.00 in Snow Light Snow
7:42 AM 15.8 °F 0.9 °F 8.6 °F 73% 29.71 in 4.0 mi NNW 15.0 mph 27.6 mph 0.00 in Snow Light Snow
7:53 AM 16.0 °F 1.1 °F 9.0 °F 74% 29.69 in 2.5 mi NNW 15.0 mph 24.2 mph 0.00 in Snow Light Snow
8:07 AM 15.8 °F 0.3 °F 8.6 °F 73% 29.72 in 3.0 mi NNW 16.1 mph 27.6 mph 0.00 in Snow Light Snow
8:32 AM 17.6 °F 0.9 °F 10.4 °F 73% 29.72 in 1.8 mi NW 20.7 mph 28.8 mph 0.00 in Snow Light Snow
8:43 AM 17.6 °F 1.7 °F 10.4 °F 73% 29.72 in 3.0 mi NW 18.4 mph 26.5 mph 0.00 in Snow Light Snow
8:53 AM 17.1 °F 1.0 °F 10.0 °F 74% 29.69 in 2.5 mi NW 18.4 mph 25.3 mph 0.01 in Snow Light Snow
9:23 AM 17.6 °F 0.9 °F 10.4 °F 73% 29.73 in 1.5 mi NNW 20.7 mph 31.1 mph 0.01 in Snow Light Snow
9:53 AM 19.0 °F 4.0 °F 10.9 °F 71% 29.69 in 2.0 mi NW 17.3 mph 27.6 mph 0.01 in Snow Light Snow
10:10 AM 19.4 °F 4.1 °F 10.4 °F 68% 29.73 in 5.0 mi NW 18.4 mph 28.8 mph 0.00 in Snow Light Snow
10:29 AM 19.4 °F 2.1 °F 10.4 °F 68% 29.73 in 1.8 mi NW 24.2 mph 39.1 mph 0.00 in Snow Light Snow
10:39 AM 19.4 °F 5.0 °F 10.4 °F 68% 29.73 in 4.0 mi NNW 16.1 mph 29.9 mph 0.00 in   Overcast
10:53 AM 19.0 °F 4.0 °F 10.9 °F 71% 29.70 in 3.0 mi NNW 17.3 mph 36.8 mph 0.00 in Snow Light Snow
10:55 AM 19.4 °F 2.8 °F 10.4 °F 68% 29.74 in 1.2 mi NNW 21.9 mph 36.8 mph 0.00 in Snow Light Snow
11:01 AM 17.6 °F 2.7 °F 12.2 °F 79% 29.73 in 0.2 mi NW 16.1 mph 31.1 mph 0.00 in Fog , Snow Snow
11:10 AM 19.4 °F 3.6 °F 10.4 °F 68% 29.73 in 1.0 mi NW 19.6 mph 31.1 mph 0.00 in Snow Light Snow
11:13 AM 19.4 °F 5.0 °F 10.4 °F 68% 29.73 in 3.0 mi NNW 16.1 mph 31.1 mph 0.00 in Snow Light Snow
11:27 AM 19.4 °F 5.0 °F 10.4 °F 68% 29.72 in 2.0 mi NNW 16.1 mph 26.5 mph 0.00 in Snow Light Snow
11:38 AM 19.4 °F 3.6 °F 10.4 °F 68% 29.72 in 4.0 mi NW 19.6 mph 31.1 mph 0.00 in Snow Light Snow
11:44 AM 19.4 °F 2.5 °F 10.4 °F 68% 29.72 in 1.8 mi NNW 23.0 mph 34.5 mph 0.00 in Snow Light Snow
11:53 AM 19.9 °F 2.5 °F 10.9 °F 68% 29.69 in 1.0 mi NW 25.3 mph 38.0 mph 0.00 in Snow Light Snow
12:25 PM 21.2 °F 6.4 °F 10.4 °F 63% 29.73 in 2.5 mi NNW 18.4 mph 34.5 mph 0.00 in Snow Light Snow
12:28 PM 21.2 °F 3.5 °F 10.4 °F 63% 29.73 in 2.5 mi NNW 27.6 mph 34.5 mph 0.00 in Snow Light Snow
12:35 PM 21.2 °F 3.9 °F 10.4 °F 63% 29.73 in 1.8 mi NNW 26.5 mph 40.3 mph 0.00 in   Overcast
12:46 PM 19.4 °F 1.8 °F 12.2 °F 74% 29.73 in 2.0 mi NW 25.3 mph 31.1 mph 0.00 in Snow Light Snow
12:53 PM 19.9 °F 4.8 °F 10.9 °F 68% 29.69 in 2.5 mi NW 18.4 mph 31.1 mph 0.00 in Snow Light Snow
1:01 PM 19.4 °F 5.5 °F 12.2 °F 74% 29.73 in 0.8 mi NW 15.0 mph 28.8 mph 0.00 in Snow Light Snow
1:17 PM 19.4 °F 3.2 °F 12.2 °F 74% 29.73 in 0.8 mi NW 20.7 mph 29.9 mph 0.00 in Snow Light Snow
1:23 PM 17.6 °F 1.3 °F 12.2 °F 79% 29.73 in 0.2 mi NNW 19.6 mph 29.9 mph 0.00 in Fog , Snow Snow
1:46 PM 19.4 °F 5.0 °F 12.2 °F 74% 29.73 in 0.8 mi NNW 16.1 mph 21.9 mph 0.01 in Snow Light Snow
1:51 PM 17.6 °F 1.3 °F 12.2 °F 79% 29.73 in 1.0 mi NW 19.6 mph 31.1 mph 0.01 in Snow Light Snow
1:53 PM 18.0 °F 0.9 °F 10.9 °F 74% 29.70 in 1.0 mi NW 21.9 mph 31.1 mph 0.01 in Snow Light Snow
2:04 PM 19.4 °F 3.6 °F 10.4 °F 68% 29.73 in 0.8 mi NW 19.6 mph 35.7 mph 0.00 in Snow Light Snow
2:25 PM 19.4 °F 2.5 °F 8.6 °F 63% 29.73 in 1.5 mi NW 23.0 mph 36.8 mph 0.00 in Snow Light Snow
2:33 PM 19.4 °F 4.5 °F 10.4 °F 68% 29.73 in 2.5 mi WNW 17.3 mph 29.9 mph 0.00 in Snow Light Snow
2:48 PM 19.4 °F 1.4 °F 10.4 °F 68% 29.73 in 0.8 mi NNW 26.5 mph 40.3 mph 0.00 in Snow Light Snow
2:53 PM 19.9 °F 4.3 °F 10.9 °F 68% 29.69 in 0.5 mi NW 19.6 mph 40.3 mph 0.00 in Snow Snow
2:59 PM 19.4 °F 2.8 °F 10.4 °F 68% 29.73 in 2.0 mi NNW 21.9 mph 32.2 mph 0.00 in Snow Light Snow
3:17 PM 19.4 °F 4.5 °F 10.4 °F 68% 29.74 in 3.0 mi NNW 17.3 mph 25.3 mph 0.00 in Snow Light Snow
3:53 PM 19.0 °F 3.6 °F 9.0 °F 65% 29.73 in 4.0 mi NW 18.4 mph 31.1 mph 0.00 in Snow Light Snow
4:07 PM 19.4 °F 2.5 °F 8.6 °F 63% 29.77 in 10.0 mi NW 23.0 mph 28.8 mph 0.00 in   Mostly Cloudy
4:53 PM 19.0 °F 5.6 °F 9.0 °F 65% 29.74 in 9.0 mi NW 13.8 mph 19.6 mph 0.00 in Snow Light Snow
5:53 PM 17.1 °F 5.0 °F 9.0 °F 71% 29.76 in 10.0 mi NNW 10.4 mph - 0.00 in   Overcast
6:07 PM 17.6 °F 8.2 °F 10.4 °F 73% 29.77 in 6.0 mi North 6.9 mph - 0.00 in Snow Light Snow
6:22 PM 17.6 °F 10.7 °F 10.4 °F 73% 29.77 in 2.0 mi NNW 4.6 mph - 0.00 in Snow Light Snow
6:43 PM 15.8 °F 6.1 °F 12.2 °F 86% 29.77 in 1.8 mi WNW 6.9 mph - 0.01 in Snow Light Snow
6:50 PM 15.8 °F 5.1 °F 12.2 °F 86% 29.77 in 2.0 mi NW 8.1 mph - 0.01 in Snow Light Snow
6:53 PM 16.0 °F 6.3 °F 12.0 °F 84% 29.77 in 2.0 mi NW 6.9 mph - 0.01 in Snow Light Snow
7:24 PM 15.8 °F 7.2 °F 12.2 °F 86% 29.80 in 1.5 mi NNW 5.8 mph - 0.00 in Snow Light Snow
7:33 PM 15.8 °F 5.1 °F 12.2 °F 86% 29.80 in 3.0 mi NNW 8.1 mph - 0.00 in Snow Light Snow
7:51 PM 15.8 °F 6.1 °F 12.2 °F 86% 29.80 in 1.8 mi NW 6.9 mph - 0.00 in Snow Light Snow
7:53 PM 16.0 °F 7.4 °F 12.0 °F 84% 29.81 in 1.8 mi North 5.8 mph - 0.00 in Snow Light Snow
8:04 PM 15.8 °F 6.1 °F 12.2 °F 86% 29.81 in 1.0 mi NNW 6.9 mph - 0.01 in Snow Light Snow
8:08 PM 15.8 °F 6.1 °F 12.2 °F 86% 29.81 in 0.8 mi NNW 6.9 mph - 0.01 in Snow Light Snow
8:21 PM 15.8 °F 4.2 °F 12.2 °F 86% 29.81 in 1.0 mi NNW 9.2 mph 16.1 mph 0.01 in Snow Light Snow
8:26 PM 15.8 °F 6.1 °F 12.2 °F 86% 29.81 in 2.0 mi NNW 6.9 mph - 0.02 in Snow Light Snow
8:34 PM 15.8 °F 3.4 °F 12.2 °F 86% 29.82 in 9.0 mi NNW 10.4 mph - 0.02 in   Overcast
8:44 PM 15.8 °F 5.1 °F 10.4 °F 79% 29.82 in 9.0 mi NNW 8.1 mph 17.3 mph 0.02 in Snow Light Snow
8:53 PM 17.1 °F 5.8 °F 10.0 °F 74% 29.81 in 7.0 mi NNW 9.2 mph - 0.02 in Snow Light Snow
9:14 PM 17.6 °F 8.2 °F 12.2 °F 79% 29.83 in 2.5 mi Variable 6.9 mph - 0.00 in Snow Light Snow
9:24 PM 17.6 °F 9.3 °F 12.2 °F 79% 29.83 in 1.5 mi WNW 5.8 mph - 0.00 in Snow Light Snow
9:41 PM 15.8 °F 0.9 °F 12.2 °F 86% 29.84 in 0.8 mi NW 15.0 mph 20.7 mph 0.00 in Snow Light Snow
9:51 PM 17.6 °F 3.7 °F 12.2 °F 79% 29.84 in 1.0 mi NNW 13.8 mph 23.0 mph 0.01 in Snow Light Snow
9:53 PM 17.1 °F 1.0 °F 10.9 °F 77% 29.81 in 1.8 mi NNW 18.4 mph 24.2 mph 0.01 in Snow Light Snow
9:56 PM 17.6 °F 2.2 °F 10.4 °F 73% 29.84 in 3.0 mi NNW 17.3 mph 24.2 mph 0.00 in Snow Light Snow
10:06 PM 17.6 °F 1.3 °F 10.4 °F 73% 29.84 in 2.0 mi NNW 19.6 mph 25.3 mph 0.00 in Snow Light Snow
10:11 PM 15.8 °F 0.3 °F 12.2 °F 86% 29.85 in 0.8 mi NNW 16.1 mph 25.3 mph 0.00 in Snow Light Snow
10:19 PM 15.8 °F 2.1 °F 12.2 °F 86% 29.85 in 0.2 mi NW 12.7 mph 25.3 mph 0.01 in Fog , Snow Snow
10:27 PM 15.8 °F 3.4 °F 12.2 °F 86% 29.85 in 0.5 mi NNW 10.4 mph - 0.02 in Fog , Snow Snow
10:33 PM 15.8 °F -0.6 °F 10.4 °F 79% 29.85 in 2.0 mi NW 18.4 mph 24.2 mph 0.02 in Snow Light Snow
10:40 PM 17.6 °F 4.3 °F 8.6 °F 68% 29.86 in 6.0 mi NW 12.7 mph 24.2 mph 0.02 in Snow Light Snow
10:50 PM 17.6 °F 5.0 °F 8.6 °F 68% 29.85 in 7.0 mi NW 11.5 mph 26.5 mph 0.02 in Snow Light Snow
10:53 PM 17.1 °F 5.0 °F 9.0 °F 71% 29.83 in 7.0 mi NW 10.4 mph 26.5 mph 0.02 in Snow Light Snow
11:05 PM 17.6 °F 3.2 °F 10.4 °F 73% 29.86 in 3.0 mi NW 15.0 mph 25.3 mph 0.00 in Snow Light Snow
11:13 PM 15.8 °F 2.1 °F 10.4 °F 79% 29.86 in 2.5 mi NW 12.7 mph 20.7 mph 0.00 in Snow Light Snow
11:21 PM 17.6 °F 5.0 °F 8.6 °F 68% 29.86 in 7.0 mi WNW 11.5 mph - 0.00 in Snow Light Snow
11:53 PM 17.1 °F 2.0 °F 9.0 °F 71% 29.83 in 5.0 mi NW 16.1 mph 25.3 mph 0.00 in Snow Light Snow